Weather in Nikol'skiy Torzhok

Russia / Vologda Oblast     59°52′42″N   38°46′24″E
temp.,
°C
wind,
m/s
gust,
m/s
humid.,
%
clouds,
%
prec.,
mm/h
press.,
hPa
HPBL,
m
18 april, sun
sun1800:00+3ne27855 0.0 1029128
03:00+2ne288699 0.0 1030155
06:00+2ne2886100 0.0 1030200
09:00+7ne4766100 0.0 1030484
12:00+9ne4655100 0.0 10301196
15:00+9ene565698 0.0 10301379
18:00+7ene375662 0.0 10311279
21:00+3ene396416 0.0 1032241
19 april, mon
mon1900:00+1ene310723 0.0 1033292
03:00−1ene39795 0.0 1034243
06:00−1ene39775 0.0 1034322
09:00+4e47470 0.0 10341060
12:00+7e46370 0.0 10331522
15:00+8e46345 0.0 10321727
18:00+8e354274 0.0 10311481
21:00+3e2766100 0.0 1032138
20 april, tue
tue2000:00+1ese2973100 0.0 1033224
03:00−1e27815 0.0 1033159
06:00−1e28775 0.0 1032249
09:00+5ese484322 0.0 1031974
12:00+8ese57316 0.0 10291445
15:00+9ese5729100 0.0 10271680
18:00+8ese4839100 0.0 10251183
21:00+4ese31256100 0.0 1024382
21 april, wed
wed2100:00+3ese41163100 0.0 1022425
03:00+2e41267100 0.0 1020497
06:00+2e51462100 0.0 1016729
09:00+3ese61460100 0.1 10131028
12:00+2ese61490100 1.1 1010966
15:00+2ese61489100 1.3 1008863
18:00+1ese51496100 1.0 1006703
21:00+2se61497100 2.7 1006954
22 april, thu
thu2200:00+3se51297100 0.3 1004970
03:00+3sse4997100 1.5 1004882
06:00+2ssw41097100 0.9 1006752
09:00+2ssw51194100 1.6 1009896
12:00+4sw598395 0.2 10121028
15:00+3sw4996100 0.8 1014664
18:00+2sw41097100 0.6 1017748
21:00+2sw3895100 0.9 1019681